Tracking 29892 objects as of 21-Nov-2024
HD Live streaming from Space Station
objects crossing your sky now

STARLINK-2495

Track STARLINK-2495 now!
10-day predictions
STARLINK-2495 is classified as:


NORAD ID: 48325
Int'l Code: 2021-036BB
Perigee: 553.6 km
Apogee: 555.0 km
Inclination: 53.1 °
Period: 95.6 minutes
Semi major axis: 6925 km
RCS: Unknown
Launch date: April 29, 2021
Source: United States (US)
Launch site: AIR FORCE EASTERN TEST RANGE (AFETR)
Your satellite tracking list
Your tracking list is empty




NASA's NSSDC Master Catalog

Two Line Element Set (TLE):
1 48325U 21036BB  24325.31948343  .00002969  00000-0  21799-3 0  9992
2 48325  53.0528  71.1424 0001054  81.6148 278.4961 15.06420633196535
Source of the keplerian elements: AFSPC